SYRACUSE 4A

Last updated on Tue Jul 01 2025 00:02:48 GMT+0000 (Coordinated Universal Time)

1 49333U 21095B 25181.50546767 .00000134 00000+0 00000+0 0 9992 2 49333 0.0191 18.0338 0001410 77.1041 51.1590 1.00271775 14437
UTC large
Height (km)
Speed (km/s)
/
Latitude / Longitude
Inclination (degrees)
Orbital Period (minutes)
Azimuth
Elevation
Range (km)
Doppler Factor

Next 0 passes for location: London (51.5072 / 0.1276)

Sorry there are no passes over London.